TimeEDT,TemperatureF,Dew PointF,Humidity,Sea Level PressureIn,VisibilityMPH,Wind Direction,Wind SpeedMPH,Gust SpeedMPH,PrecipitationIn,Events,Conditions,WindDirDegrees,DateUTC
12:15 AM,47.3,32.9,57,30.02,10.0,West,4.6,-,N/A,,Clear,280,2013-10-24 04:15:00
12:35 AM,46.4,33.3,60,30.03,10.0,Calm,Calm,-,N/A,,Clear,0,2013-10-24 04:35:00
12:55 AM,45.1,33.8,65,30.02,10.0,NW,4.6,-,N/A,,Clear,310,2013-10-24 04:55:00
1:15 AM,45.3,33.8,64,30.04,10.0,WNW,4.6,-,N/A,,Clear,290,2013-10-24 05:15:00
1:35 AM,45.1,33.8,65,30.04,10.0,Calm,Calm,-,N/A,,Clear,0,2013-10-24 05:35:00
1:55 AM,43.5,34.0,69,30.04,10.0,WNW,3.5,-,N/A,,Clear,300,2013-10-24 05:55:00
2:15 AM,41.9,34.0,73,30.05,10.0,West,4.6,-,N/A,,Clear,260,2013-10-24 06:15:00
2:35 AM,42.4,34.0,72,30.05,10.0,West,5.8,-,N/A,,Clear,280,2013-10-24 06:35:00
2:55 AM,42.1,33.8,72,30.06,10.0,West,3.5,-,N/A,,Clear,280,2013-10-24 06:55:00
3:15 AM,41.7,33.8,73,30.06,10.0,West,3.5,-,N/A,,Clear,260,2013-10-24 07:15:00
3:35 AM,40.1,33.8,78,30.07,10.0,SW,3.5,-,N/A,,Clear,230,2013-10-24 07:35:00
3:55 AM,39.4,33.6,80,30.08,10.0,Calm,Calm,-,N/A,,Clear,0,2013-10-24 07:55:00
4:15 AM,40.1,33.8,78,30.08,10.0,West,4.6,-,N/A,,Clear,260,2013-10-24 08:15:00
4:35 AM,39.7,33.3,78,30.09,10.0,West,3.5,-,N/A,,Clear,260,2013-10-24 08:35:00
4:55 AM,39.4,33.1,78,30.08,10.0,Calm,Calm,-,N/A,,Clear,0,2013-10-24 08:55:00
5:15 AM,35.8,33.1,90,30.09,10.0,Calm,Calm,-,N/A,,Clear,0,2013-10-24 09:15:00
5:35 AM,34.9,33.3,94,30.10,10.0,Calm,Calm,-,N/A,,Clear,0,2013-10-24 09:35:00
5:55 AM,37.2,33.4,86,30.10,10.0,Calm,Calm,-,N/A,,Clear,0,2013-10-24 09:55:00
6:15 AM,33.8,32.4,94,30.10,10.0,Calm,Calm,-,N/A,,Clear,0,2013-10-24 10:15:00
6:35 AM,33.3,32.0,95,30.11,10.0,Calm,Calm,-,N/A,,Clear,0,2013-10-24 10:35:00
6:55 AM,33.1,32.0,96,30.11,10.0,Calm,Calm,-,N/A,,Clear,0,2013-10-24 10:55:00
7:15 AM,32.9,32.0,96,30.12,10.0,Calm,Calm,-,N/A,,Clear,0,2013-10-24 11:15:00
7:35 AM,38.3,32.9,81,30.12,10.0,West,3.5,-,N/A,,Clear,270,2013-10-24 11:35:00
7:55 AM,38.3,32.7,80,30.13,10.0,Calm,Calm,-,N/A,,Clear,0,2013-10-24 11:55:00
8:15 AM,34.9,33.1,93,30.13,10.0,Calm,Calm,-,N/A,,Clear,0,2013-10-24 12:15:00
8:35 AM,37.6,35.2,91,30.15,10.0,Calm,Calm,-,N/A,,Clear,0,2013-10-24 12:35:00
8:55 AM,41.0,34.9,79,30.16,10.0,Calm,Calm,-,N/A,,Clear,0,2013-10-24 12:55:00
9:15 AM,44.1,33.8,67,30.16,10.0,WNW,4.6,-,N/A,,Clear,290,2013-10-24 13:15:00
9:35 AM,46.4,32.7,59,30.17,10.0,West,5.8,-,N/A,,Clear,280,2013-10-24 13:35:00
9:55 AM,48.4,32.7,55,30.17,10.0,West,4.6,-,N/A,,Clear,280,2013-10-24 13:55:00
10:15 AM,49.6,32.0,51,30.17,10.0,West,6.9,-,N/A,,Clear,280,2013-10-24 14:15:00
10:35 AM,50.9,32.2,49,30.17,10.0,West,4.6,-,N/A,,Clear,280,2013-10-24 14:35:00
10:55 AM,51.4,30.2,44,30.17,10.0,West,6.9,-,N/A,,Clear,280,2013-10-24 14:55:00
11:15 AM,52.2,31.8,46,30.16,10.0,SW,8.1,-,N/A,,Clear,220,2013-10-24 15:15:00
11:35 AM,53.4,31.1,43,30.16,10.0,SW,10.4,-,N/A,,Scattered Clouds,230,2013-10-24 15:35:00
11:55 AM,53.8,30.4,41,30.15,10.0,WSW,6.9,-,N/A,,Clear,240,2013-10-24 15:55:00
12:15 PM,54.5,29.5,38,30.14,10.0,SW,9.2,-,N/A,,Clear,230,2013-10-24 16:15:00
12:35 PM,55.0,29.3,37,30.14,10.0,NW,4.6,-,N/A,,Clear,310,2013-10-24 16:35:00
12:55 PM,55.8,30.2,38,30.13,10.0,West,8.1,-,N/A,,Clear,280,2013-10-24 16:55:00
1:15 PM,56.1,30.4,38,30.12,10.0,West,9.2,-,N/A,,Clear,270,2013-10-24 17:15:00
1:35 PM,56.1,30.4,38,30.11,10.0,West,6.9,-,N/A,,Clear,270,2013-10-24 17:35:00
1:55 PM,58.1,30.4,35,30.10,10.0,West,4.6,19.6,N/A,,Clear,260,2013-10-24 17:55:00
2:15 PM,57.7,29.8,35,30.09,10.0,WNW,8.1,17.3,N/A,,Clear,290,2013-10-24 18:15:00
2:35 PM,59.0,31.3,35,30.09,10.0,WSW,8.1,-,N/A,,Clear,250,2013-10-24 18:35:00
2:55 PM,58.6,30.9,35,30.09,10.0,West,4.6,-,N/A,,Clear,270,2013-10-24 18:55:00
3:15 PM,59.4,31.3,35,30.09,10.0,WNW,9.2,-,N/A,,Scattered Clouds,290,2013-10-24 19:15:00
3:35 PM,59.7,31.8,35,30.08,10.0,WSW,11.5,-,N/A,,Overcast,250,2013-10-24 19:35:00
3:55 PM,58.5,31.1,35,30.08,10.0,West,8.1,19.6,N/A,,Scattered Clouds,280,2013-10-24 19:55:00
4:15 PM,59.0,31.8,36,30.09,10.0,West,10.4,-,N/A,,Mostly Cloudy,280,2013-10-24 20:15:00
4:35 PM,58.5,32.5,38,30.09,10.0,NW,3.5,-,N/A,,Mostly Cloudy,320,2013-10-24 20:35:00
4:55 PM,58.3,32.0,37,30.09,10.0,West,4.6,-,N/A,,Scattered Clouds,260,2013-10-24 20:55:00
5:15 PM,57.7,33.6,40,30.09,10.0,West,6.9,-,N/A,,Mostly Cloudy,270,2013-10-24 21:15:00
5:35 PM,57.6,34.3,42,30.09,10.0,Calm,Calm,-,N/A,,Mostly Cloudy,0,2013-10-24 21:35:00
5:55 PM,57.4,34.9,43,30.10,10.0,West,3.5,-,N/A,,Scattered Clouds,260,2013-10-24 21:55:00
6:15 PM,56.5,35.2,45,30.10,10.0,Calm,Calm,-,N/A,,Clear,0,2013-10-24 22:15:00
6:35 PM,54.0,39.4,58,30.11,10.0,Calm,Calm,-,N/A,,Clear,0,2013-10-24 22:35:00
6:55 PM,48.4,41.4,77,30.11,10.0,Calm,Calm,-,N/A,,Clear,0,2013-10-24 22:55:00
7:15 PM,47.5,41.0,78,30.12,10.0,Calm,Calm,-,N/A,,Clear,0,2013-10-24 23:15:00
7:35 PM,45.3,40.5,83,30.13,10.0,Calm,Calm,-,N/A,,Clear,0,2013-10-24 23:35:00
7:55 PM,44.1,40.5,87,30.13,10.0,Calm,Calm,-,N/A,,Clear,0,2013-10-24 23:55:00
8:15 PM,42.6,39.9,90,30.14,10.0,Calm,Calm,-,N/A,,Clear,0,2013-10-25 00:15:00
8:35 PM,42.4,39.6,90,30.15,10.0,Calm,Calm,-,N/A,,Scattered Clouds,0,2013-10-25 00:35:00
8:55 PM,41.9,39.6,91,30.15,10.0,Calm,Calm,-,N/A,,Mostly Cloudy,0,2013-10-25 00:55:00
9:15 PM,42.3,39.6,90,30.16,10.0,Calm,Calm,-,N/A,,Overcast,0,2013-10-25 01:15:00
9:35 PM,42.1,40.3,93,30.16,10.0,Calm,Calm,-,N/A,,Mostly Cloudy,0,2013-10-25 01:35:00
9:55 PM,41.0,39.2,93,30.17,10.0,Calm,Calm,-,N/A,,Mostly Cloudy,0,2013-10-25 01:55:00
10:15 PM,41.4,39.4,93,30.18,10.0,Calm,Calm,-,N/A,,Overcast,0,2013-10-25 02:15:00
10:35 PM,42.3,40.3,93,30.18,10.0,Calm,Calm,-,N/A,,Overcast,0,2013-10-25 02:35:00
10:55 PM,43.0,40.8,92,30.18,10.0,Calm,Calm,-,N/A,,Overcast,0,2013-10-25 02:55:00
11:15 PM,43.3,41.0,91,30.18,10.0,Calm,Calm,-,N/A,,Overcast,0,2013-10-25 03:15:00
11:35 PM,44.1,42.1,93,30.19,10.0,Calm,Calm,-,N/A,,Overcast,0,2013-10-25 03:35:00
11:55 PM,44.8,42.3,91,30.19,10.0,Calm,Calm,-,N/A,,Overcast,0,2013-10-25 03:55:00